Location: Northam
(31.6525°S, 116.6655°E)
Time: 18:57:49
(UTC+08:00)

SR - Visible Passes

Search period start: 15 June 2021 00:00
Search period end: 25 June 2021 00:00
Orbit: 574 x 880 km, 66.7° (Epoch: 14 June)

Date Brightness Start Highest point End Pass type
(mag) Time Alt. Az. Time Alt. Az. Time Alt. Az.
15 Jun ? 04:31:34 10° NNE 04:34:40 20° ENE 04:37:45 10° ESE visible
15 Jun ? 06:12:52 10° WNW 06:16:26 26° WSW 06:20:02 10° S visible
16 Jun ? 05:26:46 64° SW 05:26:46 64° SW 05:30:47 10° SSE visible
17 Jun ? 04:40:20 14° SE 04:40:20 14° SE 04:40:55 10° SE visible
17 Jun ? 06:19:50 12° SW 06:19:50 12° SW 06:20:55 10° SSW visible
18 Jun ? 05:32:36 11° S 05:32:36 11° S 05:32:43 10° S visible
